#timestamp,LO_Frequency,Hit,StdDev 
1590728415.3,286047000.1,N
1590728435.1,286047000.4,N
1590728455.9,286046998.8,N
1590728475.7,286046996.6,N
1590728495.5,286046999.1,N
1590728515.4,286046998.7,N
1590728535.2,286046996.7,N
1590728555.0,286046996.9,N
1590728555.9,286046996.9,N
1590728575.8,286046996.5,N
1590728595.6,286046997.3,N
1590728615.5,286046994.9,Y
1590728635.3,286046996.8,P
1590728655.1,286046998.8,N
1590728675.9,286046999.0,N
1590728695.7,286046999.4,N
1590728715.6,286046998.1,N
1590728735.4,286046997.3,Y
1590728755.2,286046998.7,P
1590728775.1,286046997.1,P
1590728776.0,286046997.1,P
1590728795.8,286046996.9,Y
1590728815.7,286047000.7,P
1590728835.5,286047000.5,N
1590728855.3,286047002.3,N
1590728875.2,286047000.6,N
1590728895.0,286047000.4,N
1590728895.9,286047000.4,N
1590728915.8,286047000.7,N
1590728935.6,286047000.6,N
1590728955.4,286046998.1,N
1590728975.3,286046999.1,N
1590728995.1,286046999.5,N
1590729015.8,286046996.5,N
1590729035.7,286046999.2,N
1590729055.5,286046997.3,N
1590729075.4,286046998.1,N
1590729095.2,286047000.4,N
1590729115.0,286046998.6,N
1590729115.9,286046998.6,N
1590729135.8,286047000.0,N
1590729155.6,286047002.6,N
1590729175.4,286047002.5,N
1590729195.3,286047000.3,N
1590729215.1,286046999.9,N
1590729235.9,286047002.5,N
1590729255.7,286047000.4,N
1590729275.5,286047000.7,N
1590729295.4,286047000.2,N
1590729315.2,286046998.5,N
1590729335.1,286046998.2,N
1590729336.0,286046998.2,N
1590729355.8,286047000.7,N
1590729375.6,286047001.2,N
1590729395.5,286046999.6,N
1590729415.3,286046998.6,N
1590729435.1,286046998.4,N
1590729455.9,286046998.1,N
1590729475.7,286046998.3,N
1590729495.6,286046999.5,N
1590729515.4,286046999.5,N
1590729535.2,286046996.8,N
1590729555.1,286046996.5,N
1590729556.0,286046996.5,N
1590729575.8,286046996.5,N
1590729595.7,286046997.3,N
1590729615.5,286046999.4,N
1590729635.3,286047001.0,N
1590729655.2,286046999.1,N
1590729675.0,286046998.4,N
1590729675.9,286046998.4,N
1590729695.8,286047000.3,N
1590729715.6,286046998.1,N
1590729735.4,286047001.1,N
1590729755.3,286046998.1,N
1590729775.1,286047002.4,N
1590729795.9,286047002.4,N
1590729815.7,286047000.7,N
1590729835.5,286047000.6,N
1590729855.4,286047000.5,N
1590729875.2,286046999.8,N
1590729895.0,286047000.3,N
1590729895.9,286047000.3,N
1590729915.8,286047000.6,N
1590729935.6,286047000.7,N
1590729955.5,286047000.7,N
1590729975.3,286047001.1,N
1590729995.1,286046998.6,N
1590730015.9,286046999.2,N
1590730035.7,286046999.1,N
1590730055.6,286047000.5,N
1590730075.4,286046999.8,N
1590730095.2,286047002.5,N
1590730115.1,286047000.2,N
1590730116.0,286047000.2,N
1590730135.8,286046999.8,N
1590730155.6,286047001.1,N
1590730175.5,286047002.4,N
1590730195.3,286047000.4,N
1590730215.2,286047000.6,N
1590730235.9,286046998.2,N
1590730255.7,286047000.9,N
1590730275.6,286047001.1,N
1590730295.4,286047002.6,N
1590730315.2,286047002.1,N
1590730335.1,286047001.9,N
1590730336.0,286047001.9,N
1590730355.8,286047004.1,Y
1590730375.7,286047003.1,P
1590730395.5,286047003.2,N
1590730415.3,286047003.8,P
1590730435.2,286047001.3,N
1590730455.0,286047001.8,N
1590730455.9,286047001.8,N
1590730475.8,286047001.4,N
1590730495.6,286047000.5,N
1590730515.4,286047000.6,N
1590730535.3,286047002.7,N
1590730555.1,286046999.9,N
1590730575.9,286047003.9,Y
1590730595.7,286047002.4,P
1590730615.5,286047002.7,P
1590730635.4,286047003.9,P
1590730655.2,286047002.1,N
1590730675.1,286047004.2,Y
1590730676.0,286047004.2,P
1590730695.8,286046998.5,N
1590730715.6,286047000.9,N
1590730735.5,286046998.8,N
1590730755.3,286046999.9,N
1590730775.2,286047000.9,N
1590730795.9,286047000.2,N
1590730815.7,286046999.9,N
1590730835.6,286047000.9,N
1590730855.4,286047000.6,N
1590730875.2,286046999.3,N
1590730895.1,286046999.6,N
1590730896.0,286046999.6,N
1590730915.8,286046997.8,N
1590730935.7,286046997.1,N
1590730955.5,286046995.2,N
1590730975.3,286046995.0,N
1590730995.2,286046998.6,N
1590731015.0,286046999.0,N
1590731015.9,286046999.0,N
1590731035.8,286046998.4,N
1590731055.6,286046999.0,N
1590731075.4,286046999.6,N
1590731095.3,286046999.1,N
1590731115.1,286046998.7,N
1590731135.8,286046999.0,N
1590731155.7,286046999.0,N
1590731175.5,286046998.4,N
1590731195.4,286046999.2,N
1590731215.2,286046997.5,N
1590731235.0,286046997.5,N
1590731235.9,286046997.5,N
1590731255.8,286046997.8,N
1590731275.6,286046999.3,N
1590731295.5,286046998.9,N
1590731315.3,286046998.9,N
1590731335.1,286046999.3,N
1590731355.9,286046996.6,N
1590731375.7,286047000.0,N
1590731395.6,286046999.0,N
1590731415.4,286046997.0,N
1590731435.2,286046998.3,N
1590731455.1,286046999.6,N
1590731456.0,286046999.6,N
1590731475.8,286046998.3,N
1590731495.6,286046998.6,N
1590731515.5,286046999.8,N
1590731535.3,286046999.9,N
1590731555.2,286047001.0,N
1590731575.9,286046998.8,N
1590731595.7,286046997.8,N
1590731615.6,286046999.3,N
1590731635.4,286046997.1,Y
1590731655.3,286047000.9,P
1590731675.1,286047000.9,N
1590731676.0,286047000.9,N
1590731695.8,286047000.3,N
1590731715.7,286047000.0,N
1590731735.6,286047000.8,N
1590731755.5,286047001.0,N
1590731775.3,286047001.0,N
1590731795.2,286046999.8,N
1590731815.9,286046999.8,N
1590731835.7,286047000.4,N
1590731855.7,286046999.9,N
1590731875.5,286047000.6,N
1590731895.3,286047001.2,N
1590731915.2,286046998.1,Y
1590731935.0,286047000.0,P
1590731935.9,286047000.0,N
1590731955.7,286047001.5,P
1590731975.6,286047002.7,Y
1590731995.4,286047002.0,P
